Home > Weather > Glendale > Past weeks

Flag for U.S.A. Weather for the Past 2 Weeks in Glendale, California, U.S.A.

Now
54 °F

Sunny.


Feels Like: 53 °F
Forecast: 58 / 85 °F
Wind: 5 mph from Northwest

Location: Bob Hope Airport

Current Time: Feb 9, 2016 at 8:07:56 AM

Latest Report: Feb 9, 2016 at 6:53 AM


Visibility: 10 mi

Pressure: 30.13 "Hg

Humidity: 37%

Dew point: 28 °F

Location of GlendaleLocation

Historic Weather in Glendale — Graph

°F

Glendale Temperature Yesterday

Maximum temperature yesterday: 86 °F (at 1:53 PM)
Minimum temperature yesterday: 60 °F (at 11:53 PM)
Average temperature yesterday: 73 °F

High & Low Weather Summary for the Past Weeks

 TemperatureHumidityPressure
High86 °F (Feb 8, 1:53 PM)94% (Jan 31, 7:59 AM)30.34 "Hg (Jan 31, 7:59 AM)
Low39 °F (Feb 2, 5:53 AM)7% (Feb 7, 2:53 PM)29.54 "Hg (Jan 31, 1:53 PM)
Average57 °F40%30.11 "Hg
* Reported Jan 25 5:53 AM — Feb 9 5:53 AM, Glendale, Weather by CustomWeather, © 2016

Note: Actual official high and low records may vary slightly from our data, if they occured in-between our weather recording intervals... More about our weather records

Advertising

Glendale Weather History for the Previous 24 Hours

 ConditionsComfort  
Time TempWeatherWind HumidityBarometerVisibility
5:53 AM
Tue, Feb 9
54 °FClear.No wind35%30.11 "Hg10 mi
4:53 AM54 °FClear.No wind37%30.09 "Hg10 mi
3:53 AM54 °FClear.No wind35%30.09 "Hg10 mi
2:53 AM56 °FClear.3 mph32%30.09 "Hg10 mi
1:53 AM57 °FClear.No wind32%30.09 "Hg10 mi
12:53 AM58 °FClear.No wind31%30.10 "Hg10 mi
11:53 PM
Mon, Feb 8
60 °FClear.No wind28%30.11 "Hg10 mi
10:53 PM62 °FClear.No wind26%30.10 "Hg10 mi
9:53 PM65 °FClear.5 mph21%30.10 "Hg10 mi
8:53 PM68 °FClear.No wind17%30.10 "Hg10 mi
7:53 PM73 °FClear.6 mph12%30.08 "Hg10 mi
6:53 PM75 °FClear.7 mph12%30.08 "Hg10 mi
5:53 PM79 °FClear.No wind11%30.06 "Hg10 mi
4:53 PM83 °FSunny.10 mph10%30.05 "Hg10 mi
3:53 PM85 °FSunny.14 mph10%30.04 "Hg10 mi
2:53 PM86 °FSunny.10 mph10%30.05 "Hg10 mi
1:53 PM86 °FSunny.3 mph10%30.05 "Hg10 mi
12:53 PM85 °FSunny.9 mph11%30.07 "Hg10 mi
11:53 AM84 °FSunny.5 mph10%30.09 "Hg10 mi
10:53 AM82 °FSunny.3 mph12%30.12 "Hg10 mi
9:53 AM78 °FSunny.No wind16%30.12 "Hg10 mi
8:53 AM70 °FSunny.No wind22%30.12 "Hg10 mi
Weather by CustomWeather, © 2016

See weather overviewHow to use our weather pages